| time (UTC) | temp F | wind direction | speed MPH | gust MPH | rain 1hr in | rain 24hr in | rain mn in | humidity % | barometer mb |
| 20260509144122 | 75 | 356 | 4.0 | 8.0 | 0.00 | 0.00 | 0.00 | 65 | 1010.7 |
| 20260509143123 | 75 | 352 | 5.0 | 8.0 | 0.00 | 0.00 | 0.00 | 70 | 1010.7 |
| 20260509142123 | 75 | 310 | 6.0 | 8.0 | 0.00 | 0.00 | 0.00 | 70 | 1010.7 |
| 20260509141122 | 73 | 315 | 3.0 | 5.0 | 0.00 | 0.00 | 0.00 | 75 | 1010.7 |
| 20260509140222 | 72 | 293 | 6.0 | 8.0 | 0.00 | 0.00 | 0.00 | 76 | 1011.0 |
| 20260509134222 | 70 | 279 | 3.0 | 6.0 | 0.00 | 0.00 | 0.00 | 77 | 1011.2 |
| 20260509133239 | 70 | 272 | 4.0 | 7.0 | 0.00 | 0.00 | 0.00 | 78 | 1011.0 |
| 20260509132329 | 69 | 292 | 7.0 | 9.0 | 0.00 | 0.00 | 0.00 | 77 | 1011.0 |
| 20260509130341 | 68 | 279 | 4.0 | 8.0 | 0.00 | 0.00 | 0.00 | 78 | 1011.0 |
| 20260509125323 | 68 | 295 | 3.0 | 6.0 | 0.00 | 0.00 | 0.00 | 78 | 1011.0 |
| 20260509124323 | 68 | 281 | 4.0 | 7.0 | 0.00 | 0.00 | 0.00 | 77 | 1011.0 |
| 20260509123423 | 68 | 322 | 3.0 | 7.0 | 0.00 | 0.00 | 0.00 | 79 | 1010.8 |
| 20260509122440 | 68 | 259 | 3.0 | 5.0 | 0.00 | 0.00 | 0.00 | 80 | 1010.7 |
| 20260509121521 | 67 | 275 | 1.0 | 3.0 | 0.00 | 0.00 | 0.00 | 81 | 1010.7 |
| 20260509115522 | 68 | 292 | 2.0 | 4.0 | 0.00 | 0.00 | 0.00 | 80 | 1010.3 |
| 20260509114524 | 68 | 336 | 4.0 | 5.0 | 0.00 | 0.00 | 0.00 | 80 | 1010.3 |
| 20260509113523 | 68 | 337 | 2.0 | 4.0 | 0.00 | 0.00 | 0.00 | 79 | 1009.9 |
| 20260509112622 | 68 | 22 | 4.0 | 6.0 | 0.00 | 0.00 | 0.00 | 78 | 1009.7 |
| 20260509111722 | 68 | 357 | 6.0 | 9.0 | 0.00 | 0.00 | 0.00 | 78 | 1009.4 |
| 20260509110725 | 68 | 335 | 6.0 | 8.0 | 0.00 | 0.00 | 0.00 | 76 | 1009.4 |
| 20260509105722 | 68 | 337 | 6.0 | 7.0 | 0.00 | 0.00 | 0.00 | 75 | 1009.4 |
| 20260509104722 | 68 | 330 | 8.0 | 10.0 | 0.00 | 0.00 | 0.00 | 74 | 1009.4 |
| 20260509103738 | 68 | 313 | 9.0 | 14.0 | 0.00 | 0.00 | 0.00 | 73 | 1009.6 |
| 20260509102821 | 68 | 305 | 9.0 | 16.0 | 0.00 | 0.00 | 0.00 | 73 | 1009.7 |
| 20260509101822 | 68 | 301 | 10.0 | 16.0 | 0.00 | 0.00 | 0.00 | 70 | 1009.6 |
| 20260509100921 | 70 | 291 | 6.0 | 10.0 | 0.00 | 0.00 | 0.00 | 68 | 1009.5 |
| 20260509095921 | 70 | 275 | 9.0 | 14.0 | 0.00 | 0.00 | 0.00 | 74 | 1009.4 |
| 20260509094938 | 70 | 273 | 5.0 | 7.0 | 0.00 | 0.00 | 0.00 | 80 | 1009.3 |
| 20260509094022 | 70 | 288 | 5.0 | 12.0 | 0.00 | 0.00 | 0.00 | 81 | 1009.3 |
| 20260509093022 | 69 | 204 | 8.0 | 18.0 | 0.00 | 0.00 | 0.00 | 84 | 1008.1 |
| 20260509092024 | 68 | 159 | 10.0 | 16.0 | 0.00 | 0.00 | 0.00 | 88 | 1006.1 |
| 20260509091022 | 67 | 161 | 11.0 | 14.0 | 0.00 | 0.00 | 0.00 | 85 | 1006.0 |
| 20260509090038 | 67 | 163 | 8.0 | 13.0 | 0.00 | 0.00 | 0.00 | 84 | 1006.3 |
| 20260509083221 | 67 | 185 | 5.0 | 9.0 | 0.00 | 0.00 | 0.00 | 86 | 1007.5 |
| 20260509082222 | 67 | 181 | 6.0 | 13.0 | 0.00 | 0.00 | 0.00 | 86 | 1007.9 |
| 20260509081221 | 67 | 171 | 8.0 | 12.0 | 0.00 | 0.00 | 0.00 | 87 | 1008.0 |
| 20260509080222 | 67 | 171 | 6.0 | 10.0 | 0.00 | 0.00 | 0.00 | 85 | 1008.6 |
| 20260509075322 | 68 | 164 | 6.0 | 9.0 | 0.00 | 0.00 | 0.00 | 85 | 1008.6 |
| 20260509074322 | 68 | 204 | 4.0 | 5.0 | 0.00 | 0.00 | 0.00 | 83 | 1008.8 |
| 20260509073341 | 69 | 161 | 7.0 | 10.0 | 0.00 | 0.00 | 0.00 | 81 | 1009.2 |
| 20260509072337 | 69 | 201 | 4.0 | 5.0 | 0.00 | 0.00 | 0.00 | 81 | 1010.1 |
| 20260509070423 | 69 | 249 | 5.0 | 9.0 | 0.00 | 0.00 | 0.00 | 87 | 1011.2 |
| 20260509065439 | 68 | 229 | 6.0 | 10.0 | 0.00 | 0.00 | 0.00 | 91 | 1011.8 |
| 20260509064521 | 68 | 270 | 6.0 | 9.0 | 0.00 | 0.00 | 0.00 | 91 | 1012.5 |
| 20260509063540 | 68 | 277 | 4.0 | 7.0 | 0.00 | 0.00 | 0.00 | 92 | 1012.1 |
| 20260509062621 | 67 | 280 | 4.0 | 6.0 | 0.00 | 0.00 | 0.00 | 93 | 1012.0 |
| 20260509061622 | 67 | 281 | 3.0 | 5.0 | 0.00 | 0.00 | 0.00 | 92 | 1012.0 |
| 20260509060721 | 67 | 292 | 5.0 | 6.0 | 0.00 | 0.00 | 0.00 | 91 | 1011.9 |
| 20260509055722 | 68 | 269 | 1.0 | 3.0 | 0.00 | 0.00 | 0.00 | 91 | 1011.5 |
| 20260509054722 | 68 | 324 | 1.0 | 3.0 | 0.00 | 0.00 | 0.00 | 91 | 1011.6 |
| 20260509053740 | 68 | 311 | 1.0 | 3.0 | 0.00 | 0.00 | 0.00 | 91 | 1011.3 |
| 20260509052722 | 68 | 346 | 6.0 | 9.0 | 0.00 | 0.00 | 0.00 | 89 | 1011.5 |
| 20260509051822 | 68 | 180 | 0.0 | 0.0 | 0.00 | 0.00 | 0.00 | 91 | 1010.6 |
| 20260509050920 | 68 | 157 | 0.0 | 0.0 | 0.00 | 0.00 | 0.00 | 90 | 1010.6 |
| 20260509045941 | 68 | 157 | 1.0 | 4.0 | 0.00 | 0.00 | 0.00 | 89 | 1010.4 |
| 20260509044928 | 68 | 157 | 1.0 | 3.0 | 0.00 | 0.00 | 0.00 | 87 | 1010.3 |
| 20260509044026 | 69 | 112 | 0.0 | 0.0 | 0.00 | 0.00 | 0.00 | 87 | 1010.6 |
| 20260509043043 | 69 | 112 | 0.0 | 2.0 | 0.00 | 0.00 | 0.00 | 87 | 1010.4 |
| 20260509042126 | 69 | 112 | 2.0 | 3.0 | 0.00 | 0.00 | 0.00 | 88 | 1010.4 |
| 20260509041144 | 70 | 90 | 1.0 | 3.0 | 0.00 | 0.00 | 0.00 | 87 | 1010.5 |
| 20260509040144 | 70 | 104 | 0.0 | 0.0 | 0.00 | 0.00 | 0.00 | 86 | 1010.3 |
| 20260509035126 | 70 | 156 | 5.0 | 7.0 | 0.00 | 0.00 | 0.00 | 87 | 1009.9 |
| 20260509034141 | 70 | 157 | 5.0 | 7.0 | 0.00 | 0.00 | 0.00 | 87 | 1009.8 |
| 20260509033225 | 70 | 157 | 3.0 | 8.0 | 0.00 | 0.00 | 0.00 | 87 | 1009.5 |
| 20260509031227 | 70 | 157 | 7.0 | 10.0 | 0.00 | 0.00 | 0.00 | 86 | 1009.1 |
| 20260509030326 | 70 | 161 | 6.0 | 8.0 | 0.00 | 0.00 | 0.00 | 86 | 1009.1 |
| 20260509025328 | 70 | 157 | 4.0 | 7.0 | 0.00 | 0.00 | 0.00 | 86 | 1008.8 |
| 20260509023327 | 71 | 157 | 8.0 | 11.0 | 0.00 | 0.00 | 0.00 | 85 | 1008.2 |
| 20260509022327 | 71 | 160 | 7.0 | 9.0 | 0.00 | 0.00 | 0.00 | 85 | 1008.5 |
| 20260509021327 | 71 | 153 | 7.0 | 9.0 | 0.00 | 0.00 | 0.00 | 85 | 1008.5 |
| 20260509020342 | 71 | 140 | 4.0 | 7.0 | 0.00 | 0.00 | 0.00 | 84 | 1008.6 |
| 20260509015426 | 71 | 157 | 5.0 | 7.0 | 0.00 | 0.00 | 0.00 | 82 | 1008.6 |
| 20260509014442 | 71 | 135 | 3.0 | 5.0 | 0.00 | 0.00 | 0.00 | 82 | 1008.7 |
| 20260509013427 | 71 | 112 | 0.0 | 0.0 | 0.00 | 0.00 | 0.00 | 82 | 1008.9 |
| 20260509012526 | 71 | 112 | 0.0 | 0.0 | 0.00 | 0.00 | 0.00 | 81 | 1008.7 |
| 20260509011625 | 72 | 135 | 0.0 | 0.0 | 0.00 | 0.00 | 0.00 | 80 | 1008.6 |
| 20260509005727 | 72 | 103 | 0.0 | 3.0 | 0.00 | 0.00 | 0.00 | 78 | 1008.1 |
| 20260509003725 | 73 | 135 | 2.0 | 3.0 | 0.00 | 0.00 | 0.00 | 78 | 1007.9 |
| 20260509002725 | 73 | 135 | 2.0 | 4.0 | 0.00 | 0.00 | 0.00 | 77 | 1008.0 |
| 20260509001727 | 73 | 135 | 0.0 | 1.0 | 0.00 | 0.00 | 0.00 | 76 | 1008.2 |
| 20260509000742 | 73 | 135 | 1.0 | 4.0 | 0.00 | 0.00 | 0.00 | 77 | 1008.4 |
| 20260508235727 | 73 | 157 | 1.0 | 4.0 | 0.00 | 0.00 | 0.00 | 76 | 1008.3 |
| 20260508234825 | 74 | 135 | 1.0 | 4.0 | 0.00 | 0.00 | 0.00 | 76 | 1008.4 |
| 20260508233827 | 73 | 150 | 1.0 | 5.0 | 0.00 | 0.00 | 0.00 | 76 | 1008.6 |
| 20260508232842 | 73 | 135 | 1.0 | 2.0 | 0.00 | 0.00 | 0.00 | 76 | 1008.5 |
| 20260508231925 | 73 | 157 | 2.0 | 4.0 | 0.00 | 0.00 | 0.00 | 76 | 1008.4 |
| 20260508230926 | 73 | 156 | 3.0 | 6.0 | 0.00 | 0.00 | 0.00 | 74 | 1008.3 |
| 20260508225926 | 73 | 182 | 3.0 | 9.0 | 0.00 | 0.00 | 0.00 | 75 | 1008.6 |
| 20260508224926 | 74 | 153 | 6.0 | 8.0 | 0.00 | 0.00 | 0.00 | 73 | 1008.4 |
| 20260508223926 | 74 | 149 | 6.0 | 7.0 | 0.00 | 0.00 | 0.00 | 73 | 1008.3 |
| 20260508222924 | 75 | 154 | 9.0 | 12.0 | 0.00 | 0.00 | 0.00 | 72 | 1008.2 |
| 20260508221926 | 74 | 156 | 8.0 | 11.0 | 0.00 | 0.00 | 0.00 | 73 | 1008.3 |
| 20260508220926 | 74 | 166 | 9.0 | 13.0 | 0.00 | 0.00 | 0.00 | 72 | 1008.4 |
| 20260508215925 | 74 | 160 | 12.0 | 15.0 | 0.00 | 0.00 | 0.00 | 71 | 1008.6 |
| 20260508213927 | 73 | 158 | 5.0 | 10.0 | 0.00 | 0.00 | 0.00 | 70 | 1008.8 |
| 20260508212942 | 73 | 154 | 10.0 | 15.0 | 0.00 | 0.00 | 0.00 | 69 | 1008.7 |
| 20260508211026 | 73 | 142 | 6.0 | 9.0 | 0.00 | 0.00 | 0.00 | 70 | 1009.2 |
| 20260508210042 | 73 | 134 | 6.0 | 11.0 | 0.00 | 0.00 | 0.00 | 69 | 1009.7 |
| 20260508205025 | 73 | 162 | 6.0 | 10.0 | 0.00 | 0.00 | 0.00 | 69 | 1009.9 |
| 20260508203126 | 71 | 160 | 5.0 | 10.0 | 0.00 | 0.00 | 0.00 | 71 | 1010.2 |
| 20260508202126 | 70 | 154 | 10.0 | 12.0 | 0.00 | 0.00 | 0.00 | 72 | 1010.1 |
| 20260508201127 | 69 | 156 | 4.0 | 7.0 | 0.00 | 0.00 | 0.00 | 72 | 1010.0 |
| 20260508200126 | 70 | 134 | 4.0 | 10.0 | 0.00 | 0.00 | 0.00 | 71 | 1010.1 |
| 20260508195126 | 70 | 159 | 9.0 | 11.0 | 0.00 | 0.00 | 0.00 | 70 | 1010.6 |
| 20260508193126 | 71 | 161 | 8.0 | 11.0 | 0.00 | 0.00 | 0.00 | 68 | 1011.2 |
| 20260508192127 | 71 | 165 | 7.0 | 11.0 | 0.00 | 0.00 | 0.00 | 68 | 1011.4 |
| 20260508191124 | 71 | 171 | 9.0 | 14.0 | 0.00 | 0.00 | 0.00 | 68 | 1011.3 |
| 20260508190124 | 71 | 149 | 4.0 | 6.0 | 0.00 | 0.00 | 0.00 | 68 | 1011.2 |
| 20260508185224 | 71 | 155 | 7.0 | 10.0 | 0.00 | 0.00 | 0.00 | 67 | 1011.2 |
| 20260508184227 | 71 | 159 | 8.0 | 11.0 | 0.00 | 0.00 | 0.00 | 66 | 1011.4 |
| 20260508182325 | 72 | 152 | 9.0 | 13.0 | 0.00 | 0.00 | 0.00 | 64 | 1011.6 |
| 20260508181326 | 73 | 165 | 9.0 | 13.0 | 0.00 | 0.00 | 0.00 | 62 | 1011.7 |
| 20260508180326 | 73 | 156 | 4.0 | 5.0 | 0.00 | 0.00 | 0.00 | 62 | 1011.8 |
| 20260508175425 | 73 | 128 | 5.0 | 8.0 | 0.00 | 0.00 | 0.00 | 62 | 1011.9 |
| 20260508174426 | 72 | 133 | 3.0 | 6.0 | 0.00 | 0.00 | 0.00 | 64 | 1012.0 |
| 20260508173425 | 71 | 90 | 4.0 | 5.0 | 0.00 | 0.00 | 0.00 | 64 | 1012.1 |
| 20260508172426 | 71 | 141 | 5.0 | 6.0 | 0.00 | 0.00 | 0.00 | 64 | 1012.4 |
| 20260508171426 | 71 | 142 | 4.0 | 7.0 | 0.00 | 0.00 | 0.00 | 63 | 1012.7 |
| 20260508170525 | 71 | 157 | 6.0 | 10.0 | 0.00 | 0.00 | 0.00 | 62 | 1012.7 |
| 20260508165525 | 72 | 155 | 4.0 | 8.0 | 0.00 | 0.00 | 0.00 | 61 | 1012.8 |
| 20260508164526 | 71 | 129 | 3.0 | 9.0 | 0.00 | 0.00 | 0.00 | 64 | 1012.8 |
| 20260508163624 | 70 | 135 | 2.0 | 8.0 | 0.00 | 0.00 | 0.00 | 65 | 1013.1 |
| 20260508162624 | 69 | 122 | 0.0 | 6.0 | 0.00 | 0.00 | 0.00 | 66 | 1013.1 |
| 20260508161640 | 68 | 159 | 6.0 | 9.0 | 0.00 | 0.00 | 0.00 | 68 | 1013.3 |
| 20260508160626 | 67 | 157 | 4.0 | 9.0 | 0.00 | 0.00 | 0.00 | 69 | 1013.6 |
| 20260508155724 | 67 | 158 | 3.0 | 6.0 | 0.00 | 0.00 | 0.00 | 69 | 1013.7 |
| 20260508154726 | 67 | 147 | 6.0 | 8.0 | 0.00 | 0.00 | 0.00 | 68 | 1013.7 |
| 20260508153724 | 67 | 148 | 4.0 | 7.0 | 0.00 | 0.00 | 0.00 | 69 | 1014.0 |
| 20260508152741 | 67 | 157 | 7.0 | 9.0 | 0.00 | 0.00 | 0.00 | 69 | 1013.8 |
| 20260508151725 | 67 | 140 | 6.0 | 10.0 | 0.00 | 0.00 | 0.00 | 68 | 1013.9 |
| 20260508150824 | 66 | 157 | 5.0 | 8.0 | 0.00 | 0.00 | 0.00 | 69 | 1014.2 |
| 20260508145825 | 66 | 169 | 4.0 | 9.0 | 0.00 | 0.00 | 0.00 | 68 | 1014.2 |